Погода в Владивостоке

Погода в Владивостоке : погода сейчас, прогноз погоды и архив. Всё, что Вы хотите узнать о погоде в Владивостоке!

Хотите узнать прогноз погоды в Владивостоке? Тогда Вам сюда: Погода в Владивостоке

Поиск расширенной информации на нашем сайте:

Другие новости

Новости СМИ2

Главная страница сайта

Новости сайта

03.07.2017

Напоминаем, что на нашем специализированном сайте Метеоцентр.Азия вы можете получить высокодетализированные автоматические прогнозы погоды по пунктам России, СНГ и мира в авиационном формате (включающие направление и скорость ветра, видимость, явления погоды, количество и форму облачности, нижнюю и верхнюю границу облачности).

Рекомендуем: Подробное описание купить квартиру эконом класса в подмосковье тут.

Погода в Владивостоке - сегодня

Время (UTC), дата Ветер
(°,м/с) 
Видим.   Явления Облачность Т
(°С)
Тd
(°С)
f(%) Тe
(°С)
Pmin
(гПа)
dP
(гПа)
Po
(мм)
O2
(г/м3)
Тmin Tmax R s Состояние
почвы
21 16.02.18 330 (СЗ) 9-12{14}  20000 м    8/8 600 м 
[Sc]
-12.1 -19.8 53 -19  1013.5  1.3  742  314  -12.1      <0.5  мокрый или
старый снег
10-40% 
00 17.02.18 340 (С) 9-15{16}  20000 м    10/0 верхняя 
[Cs]
-12.1 -21.6 45 -19  1016  2.4  743  315  -12.5         
12 17.02.18 340 (С) 8-11{14}  20000 м    ясно 
-11.1 -22.1 40 -18  1022.5  2.8  748  316           
15 17.02.18 340 (С) 8-12{14}  20000 м    ясно 
-12.3 -23.2 40 -19  1024.1  1.5  749  318           
18 17.02.18 340 (С) 6-10{12}  20000 м    ясно 
-13.4 -23.6 42 -19  1025.1  0.9  750  319           
00 18.02.18 330 (СЗ) 20000 м    ясно 
-13.7 -21.9 50 -18  1027.2  1.4  752  320  -14.6         
03 18.02.18 360 (С) 5{10}  20000 м    ясно 
-9.4 -23.2 32 -14  1025.4  -1.4  751  315           
06 18.02.18 010 (С) 6-10{11}  20000 м    ясно 
-6.6 -22.7 27 -11  1022.5  -2.6  749  311           
12 18.02.18 170 (Ю) 20000 м    ясно 
-8.5 -16.3 53 -11  1023.5  0.5  749  313           
15 18.02.18 250 (З) 20000 м    9/0 средняя 
[Ac trans]
-8.7 -16.5 53 -8  1023.1  -0.4  749  313           
18 18.02.18 330 (СЗ) 20000 м    ясно 
-11.2 -17.4 60 -15  1023.3  -0.1  749  316           
03 19.02.18 340 (С) 20000 м    ясно 
-6.3 -21.7 28 -10  1021.8  -2.1  748  310           
06 19.02.18 160 (Ю) 20000 м    3/0 средняя 
[Ac lent]
-4.9 -16.2 41 -9  1018.6  -3  746  307           
12 19.02.18 190 (Ю) 20000 м    ясно 
-6.8 -14.9 52 -6  1019.9  1.1  747  310           
15 19.02.18 350 (С) 20000 м    ясно 
-8.1 -18.6 43 -12  1020.5  0.5  747  312           
18 19.02.18 340 (С) 20000 м    ясно 
-10.3 -22.9 35 -14  1020.5  -0.2  747  314           
00 20.02.18 190 (Ю) 20000 м    10/0 средняя 
[As trans]
-9 -19.5 42 -12  1019.1  -0.3  746  312           
03 20.02.18 190 (Ю) 20000 м    8/0 верхняя 
[Cs]
-4.7 -19.2 31 -7  1018.2  -0.5  746  307           
06 20.02.18 340 (С) 20000 м    8/0 средняя 
[As trans]
-4.7 -19.7 30 -9  1016.7  -1.5  744  307           
12 20.02.18 330 (СЗ) 9-13{16}  20000 м    ясно 
-7.9 -23.2 28 -14  1020.9  2.6  747  312           
15 20.02.18 310 (СЗ) 8-11{14}  20000 м    ясно 
-10.3 -23.3 34 -17  1022.5  1.3  748  315           
18 20.02.18 360 (С) 3{12}  20000 м    ясно 
-11.9 -24.4 35 -15  1022.3  -0.3  748  317           
00 21.02.18 310 (СЗ) 20000 м    ясно 
-11.6 -22.5 40 -16  1022.9  0.5  749  317  -13.8         
03 21.02.18 270 (З) 20000 м    ясно 
-7.7 -23.4 27 -9  1021.1  -1.4  748  312           
06 21.02.18 170 (Ю) 20000 м    ясно 
-5.8 -20 32 -10  1018.5  -2.3  746  308           
Время (UTC), дата Ветер
(°,м/с) 
Видим.   Явления Облачность Т
(°С)
Тd
(°С)
f(%) Тe
(°С)
Pmin
(гПа)
dP
(гПа)
Po
(мм)
O2
(г/м3)
Тmin Tmax R s Состояние
почвы

Для получения пояснительной информации подведите курсор к названию столбца.

ПОГОДА в Владивостоке - архив

Всё, что Вы хотите узнать о погоде в Владивостоке - удобно и подробно!

Выберите нужную дату (начиная с 1 января 2015* года) и нажмите кнопку "Найти".
Будут отображены архивные сводки погоды по пункту Владивосток, начиная с указанной даты.


Отображать данные в формате CSV (для использования в таблицах Excel)


Внимание! Наш архив погоды предназначен исключительно для личного некоммерческого использования в познавательных целях. Если Вам необходимы официальные справки о состоянии погоды (для производственных, юридических, коммерческих и т.п. целей), обращайтесь в органы Росгидромета.

*Примечание: данная дата относится к архиву по метеостанциям СССР (Россия, СНГ, Балтия).
Архив по метеостанциям Зарубежной Европы и Азии (кроме Китая) хранится 10 дней, по другим регионам земного шара (Китай, Африка, Америка, Австралия, Океания) - 1 день.

Владивосток - район местоположения метеостанции


Название, широта, долгота, высота метеостанции:
Владивосток (город) 43.1°ш. 131.9°д. 183 м над ур. моря [Российская Федерация]

Дополнительная информация

В oтличие oт бoльшинства пoгoдных сайтoв мы публикуем пoдрoбную метеoинфoрмацию в детальнoм прoфессиoнальнoм фoрмате.

Характеристики температуры и влажнoсти вoздуха измеряются на высoте 2 м в тени вдали oт зданий и деревьев.
Скoрoсть ветра измеряется на высoте 10 м (на урoвне рoста челoвека скoрoсть ветра ниже в 1.5-2 раза). Если метеoстанция нахoдится в гoрoде или в лесу, тo скoрoсть ветра занижена на 2-4 м/с пo сравнению с oткрытым местoм. Скoрoсть ветра над акватoриями крупных рек и oзёр, а также на вершинах хoлмoв на 2-5 м/с выше, чем в oбычных услoвиях.
Атмoсфернoе давление в разных тoчках местнoсти мoжет значительнo oтличаться oт давления на метеoстанции, в зависимoсти oт услoвий рельефа (при пoдъёме на 10 м давление пoнижается примернo на 1 мм рт.ст.).